Theta_e
291 291 291 290 290 290 290 289 289 289 288 288 288 288 288 288 288 289 289 289 289 289 288 287 286 286 285 285 285 284 284 284 284 285 285 285 285 285 285 285 285 284
291 291 290 290 290 290 289 289 289 288 288 288 288 288 288 288 288 288 289 289 288 288 287 286 285 285 284 284 284 284 284 284 285 285 284 284 284 284 285 284 283 282
291 290 290 290 290 289 289 289 288 288 288 288 288 288 288 288 288 288 288 288 288 287 286 285 284 284 284 284 284 284 284 284 284 284 284 284 284 284 283 281 280 280
290 290 290 290 289 289 289 288 288 288 288 288 288 288 288 288 288 288 288 288 287 286 285 284 284 284 284 284 284 284 284 284 284 284 284 283 283 282 280 279 278 278
290 290 290 289 289 289 288 288 288 288 288 288 288 288 288 288 288 288 287 287 286 285 284 283 283 283 283 284 284 284 284 284 284 284 283 283 282 280 278 277 277 277
290 290 289 289 289 288 288 288 288 288 288 288 288 288 288 288 288 287 287 286 285 284 283 283 283 283 283 283 284 284 284 284 284 283 283 283 281 279 277 276 276 276
290 289 289 289 288 288 288 288 288 288 288 288 288 288 288 288 287 287 286 285 284 283 283 283 283 283 283 283 283 283 283 283 283 283 282 281 279 277 275 275 275 275
289 289 289 288 288 288 288 288 288 288 288 288 288 288 288 288 287 286 285 284 283 283 283 283 283 283 283 283 283 283 283 283 283 282 281 279 277 274 274 274 274 274
289 289 288 288 288 288 288 288 288 288 288 288 288 288 287 287 286 285 284 284 283 283 283 283 283 283 283 283 283 283 283 282 282 281 279 277 274 273 273 273 273 273
289 288 288 288 288 288 288 288 288 288 288 288 288 287 287 286 285 285 284 284 283 283 283 283 283 283 283 283 283 282 282 282 282 279 276 274 273 272 272 272 272 272
288 288 288 288 288 288 288 288 288 288 288 288 287 287 286 285 285 284 284 283 283 283 283 283 283 283 283 283 283 282 282 281 280 278 275 273 272 272 272 272 272 272
288 288 288 288 288 288 288 288 288 288 288 287 287 286 285 285 284 284 283 283 283 282 282 282 283 283 283 282 282 281 281 280 278 276 274 272 272 271 271 271 272 272
288 288 288 288 288 288 288 288 288 288 287 287 286 286 285 284 284 283 283 283 282 282 282 282 283 283 282 282 281 281 280 279 276 274 272 272 272 271 271 272 272 273
288 288 288 288 288 288 288 288 288 287 286 286 286 285 284 284 283 283 282 282 282 282 282 282 282 282 282 281 281 281 279 277 274 272 272 272 272 272 272 273 273 273
288 288 288 288 288 288 288 288 287 287 286 286 285 284 284 283 283 282 282 282 282 282 282 282 282 282 281 281 281 280 278 275 273 272 272 272 273 273 273 274 274 274
288 288 288 288 288 288 288 287 286 286 286 285 285 284 284 283 282 282 282 281 281 281 281 282 282 281 281 281 281 280 277 274 273 273 273 273 274 274 274 275 275 275
287 287 287 288 288 288 287 287 286 286 285 285 284 284 283 282 282 282 281 281 281 281 281 281 282 281 281 281 281 279 276 274 273 273 274 274 275 275 275 276 276 276
287 287 287 288 288 287 287 286 286 286 285 284 284 283 283 282 281 281 281 281 281 281 281 281 281 281 281 280 281 280 277 274 274 274 274 275 275 275 276 276 276 276
287 287 288 288 287 287 286 286 285 285 284 284 284 283 282 281 281 281 281 280 281 281 281 281 281 281 280 280 281 280 277 274 274 275 275 275 275 275 276 276 276 276
287 287 288 287 287 286 285 285 285 285 284 284 283 282 282 281 281 280 280 280 280 280 280 280 280 280 280 281 280 279 276 274 275 275 275 275 275 275 275 275 275 275
287 287 287 287 286 285 285 285 285 284 284 283 282 282 281 280 280 280 280 280 280 280 280 280 280 280 280 280 280 278 275 274 274 274 274 274 274 274 274 275 275 275
287 287 287 286 285 285 285 285 284 284 283 283 282 281 280 280 280 280 280 280 279 279 279 280 280 280 280 280 278 276 274 274 274 274 274 274 274 274 274 274 275 275
287 287 287 286 285 285 285 285 284 283 283 282 281 280 280 279 279 279 279 279 279 279 279 279 280 280 279 279 277 274 274 274 274 274 274 274 274 274 275 275 275 275
287 287 286 285 285 285 285 284 283 283 282 281 280 280 279 279 279 279 279 279 278 279 279 279 279 279 278 278 276 274 273 274 274 274 274 274 274 275 275 275 275 275
287 286 285 285 285 285 285 284 283 282 281 281 280 279 279 278 278 278 278 278 278 278 278 279 279 278 277 277 275 273 273 274 274 274 274 274 274 275 275 275 275 275
286 285 285 285 285 285 284 283 282 281 281 280 279 279 278 278 277 277 278 278 277 278 278 278 278 277 277 276 275 274 273 274 274 274 274 275 275 275 275 275 275 275
Wind_Speed
23 21 20 19 19 19 20 20 20 21 21 22 24 24 25 25 27 30 33 36 39 41 43 43 42 41 40 39 39 40 42 43 44 46 47 48 49 50 51 52 51 50
23 22 20 20 20 19 20 20 21 22 22 23 24 25 27 28 29 32 35 38 41 43 43 42 40 39 38 38 39 40 42 44 46 47 48 50 50 50 52 50 50 49
23 22 21 20 20 20 20 21 21 22 23 23 25 26 28 30 32 35 38 41 43 43 42 40 38 37 37 38 40 42 44 45 47 48 48 50 49 50 50 47 47 43
24 23 22 21 20 20 20 21 22 22 23 24 25 27 29 31 34 38 40 43 43 42 40 38 37 36 37 39 40 43 45 46 47 48 48 50 49 49 46 40 37 32
25 23 22 21 20 20 20 21 22 23 24 25 26 28 30 33 37 40 42 42 41 40 38 36 36 37 38 40 41 43 45 46 47 47 48 50 49 47 43 35 30 28
25 23 22 21 21 21 21 21 22 23 24 25 27 29 31 35 38 41 41 40 39 37 36 36 37 38 39 41 43 44 46 47 48 47 48 49 48 46 40 31 28 30
25 23 22 21 21 21 21 21 22 23 24 26 28 30 33 37 39 40 39 37 36 35 35 36 37 39 40 42 43 45 46 47 47 47 47 47 46 43 33 25 26 30
24 23 22 21 21 20 21 21 22 23 25 27 29 31 35 38 38 38 36 35 35 35 36 37 38 39 41 42 44 45 46 46 47 47 46 44 40 35 28 23 25 30
24 23 22 21 20 20 21 21 22 23 25 28 30 33 36 37 36 35 34 34 34 35 36 37 39 40 41 42 44 45 46 47 47 46 44 41 35 29 26 24 26 30
24 23 21 21 20 20 20 21 22 24 26 28 31 34 35 35 34 33 32 33 34 35 37 38 39 40 41 43 44 45 46 47 47 45 40 36 31 27 27 29 28 30
24 23 21 20 20 20 20 21 22 25 26 29 31 34 34 32 32 31 32 33 34 35 36 37 39 40 41 43 44 45 46 46 46 43 35 31 31 30 31 32 32 32
24 22 21 20 19 20 20 21 23 25 27 29 32 32 31 30 30 30 31 33 33 35 36 37 39 40 41 42 43 44 45 44 42 38 33 32 35 35 35 36 36 37
23 21 20 19 19 20 20 21 23 25 27 29 31 30 29 28 29 30 31 32 33 34 36 37 39 40 40 41 42 43 43 41 39 36 35 36 37 36 38 40 41 41
23 21 20 19 19 19 20 22 23 25 26 28 29 28 27 27 28 30 31 32 33 34 36 37 38 39 40 40 41 42 41 39 38 38 38 37 37 36 38 41 42 43
22 21 20 19 19 19 20 22 23 24 26 27 26 26 26 26 27 29 31 32 33 34 35 37 38 38 38 39 40 40 38 38 38 39 39 39 41 42 43 44 44 44
22 21 19 19 19 19 20 21 22 24 25 25 24 24 25 26 27 29 30 32 33 34 35 36 37 38 38 38 38 37 35 35 37 39 40 42 45 48 48 47 46 46
22 20 19 18 18 19 20 20 21 23 24 23 23 23 24 25 27 29 30 31 33 34 35 36 37 37 37 37 36 34 32 33 37 40 42 43 45 47 47 47 46 45
21 19 18 18 18 18 18 19 21 22 22 22 22 23 24 25 27 28 29 30 32 34 35 36 37 37 36 36 36 34 31 31 36 39 42 44 45 45 44 43 43 41
20 18 17 17 17 17 17 18 21 21 21 21 21 23 24 26 26 27 29 30 31 34 35 36 36 36 35 35 35 34 32 32 36 39 41 42 43 42 41 40 41 40
19 18 17 17 16 16 17 18 20 20 20 20 21 23 25 25 26 27 28 29 31 33 35 36 36 36 36 36 36 35 32 33 36 38 39 39 40 40 40 40 40 40
19 17 17 16 15 15 16 18 20 19 19 20 21 23 25 26 26 27 28 29 30 32 35 37 36 35 35 36 36 35 33 34 37 37 37 38 39 38 38 40 40 39
18 17 16 15 14 14 16 18 18 17 18 20 21 22 24 25 26 26 28 29 30 32 34 36 36 35 35 36 36 34 33 35 37 37 38 40 41 40 39 39 39 38
18 16 15 13 13 14 17 17 16 16 18 20 22 23 24 25 25 26 27 29 30 31 34 36 36 35 35 35 34 32 33 36 38 39 40 42 44 43 40 40 38 37
17 15 14 12 12 15 16 16 15 16 18 20 22 23 23 24 25 26 26 28 30 31 32 35 36 36 35 35 34 32 33 36 38 41 45 46 46 44 42 41 39 38
17 14 12 12 13 15 16 14 14 15 18 20 22 23 24 24 25 26 27 28 30 31 32 34 36 37 37 36 35 33 32 35 37 42 47 48 46 45 44 42 41 40
16 13 11 12 13 15 14 13 14 16 18 20 21 22 24 24 25 26 27 28 29 31 33 34 36 38 37 36 35 33 32 35 38 42 46 48 46 46 46 45 42 41
Wind_Direction
241 245 251 257 264 270 275 280 284 286 290 294 297 301 304 307 310 309 309 308 307 307 307 307 307 307 306 304 301 299 298 298 298 300 301 301 302 302 301 300 298 295
241 246 251 257 264 270 275 280 284 288 292 296 300 303 306 310 312 311 309 308 307 308 308 308 308 308 307 305 303 302 302 303 303 305 305 304 304 303 301 299 297 293
241 246 252 258 264 271 276 281 285 289 294 298 302 306 309 312 313 311 309 309 308 309 309 309 310 310 308 307 306 306 306 307 307 307 307 305 304 302 299 296 293 288
241 246 251 257 264 270 276 281 286 290 295 300 304 308 311 312 312 310 310 309 309 309 310 312 312 311 310 309 309 309 309 309 309 309 308 306 304 301 297 293 287 278
241 245 251 257 264 270 275 281 286 291 297 302 306 309 311 312 311 311 310 310 310 310 312 313 312 312 312 312 312 311 310 310 310 310 308 306 303 299 295 289 279 273
239 245 251 257 264 270 276 282 287 293 299 303 307 310 312 312 311 310 310 310 311 312 313 313 313 313 314 314 314 313 313 312 311 310 307 304 302 298 293 285 275 274
238 244 250 256 264 270 277 283 289 295 301 304 308 311 311 311 310 310 310 310 311 312 313 314 314 315 316 316 316 314 314 312 311 309 306 303 301 295 287 277 274 275
237 243 249 256 264 271 278 285 291 298 302 305 309 311 311 310 310 310 310 310 311 312 314 315 316 317 318 317 316 315 314 313 311 308 305 302 297 289 280 273 275 275
236 242 249 257 264 272 280 287 294 299 303 306 310 310 310 309 310 310 310 311 312 314 315 317 318 319 319 318 316 315 315 313 311 309 304 300 292 280 276 278 277 274
235 241 249 257 264 273 281 289 295 299 302 307 309 310 310 310 311 311 311 312 313 315 317 318 319 319 319 318 317 316 315 313 312 310 303 295 288 280 282 286 281 275
234 241 249 257 265 275 283 290 295 299 304 308 309 310 311 311 312 312 312 313 315 317 318 319 319 319 319 319 318 316 315 314 313 309 299 291 288 287 291 292 285 280
234 241 248 258 267 276 283 290 294 300 306 309 310 311 311 312 312 312 313 314 316 318 319 319 319 320 321 321 318 317 315 314 311 305 297 294 293 291 293 295 290 286
234 241 250 259 268 276 283 289 296 303 308 310 310 311 312 313 312 313 314 316 317 319 319 320 320 321 322 321 318 317 316 314 310 304 300 298 295 290 291 296 295 291
234 242 250 259 267 276 284 291 299 306 310 310 310 311 312 312 313 314 315 317 318 319 320 321 321 323 323 322 319 318 318 315 310 306 301 296 292 289 289 294 294 291
234 241 249 259 268 277 285 293 302 308 309 309 309 311 312 312 314 316 317 318 319 320 321 321 321 323 323 322 321 321 320 314 307 303 299 296 296 296 295 295 293 289
234 241 250 260 269 278 287 296 305 308 307 308 309 311 313 313 316 317 318 319 320 321 321 321 322 324 324 323 324 323 319 312 307 304 302 300 300 300 299 296 293 290
233 241 251 261 270 280 291 299 305 305 305 308 310 312 314 315 317 318 318 320 320 320 321 321 323 326 325 324 325 324 320 313 307 305 303 301 300 299 297 294 292 290
233 242 252 262 272 283 294 301 304 303 305 308 311 314 315 316 318 318 319 320 319 319 320 322 325 326 325 326 327 328 324 314 306 304 302 300 299 297 294 292 290 287
234 243 254 264 275 287 295 300 301 301 305 310 314 315 315 317 318 318 319 320 319 320 321 322 325 326 326 328 330 332 328 315 305 303 301 299 298 296 292 289 288 286
234 244 254 265 277 287 295 299 299 301 307 312 315 316 315 317 318 318 319 320 320 321 321 323 326 327 328 331 335 337 329 315 306 303 301 299 297 295 292 289 288 286
234 244 254 266 277 286 294 296 296 302 309 313 315 315 315 316 317 318 319 320 323 323 321 323 326 330 333 336 339 338 328 315 308 304 302 301 299 295 292 290 289 286
234 245 255 267 277 285 290 292 295 305 311 313 315 314 314 316 316 318 321 322 324 324 322 324 328 333 337 340 341 337 325 315 310 307 305 304 304 300 294 291 289 286
235 245 256 267 276 283 287 289 296 307 311 312 313 313 314 316 316 319 322 323 325 325 325 326 330 336 342 343 342 335 322 314 313 311 308 307 307 305 298 293 290 287
237 246 255 265 274 280 283 289 299 308 310 311 312 313 314 316 318 321 324 324 325 327 328 329 332 339 346 346 343 334 321 315 316 314 312 311 310 307 301 296 293 290
236 245 253 261 272 278 282 290 301 307 309 310 311 313 316 318 320 322 324 326 327 328 331 334 338 343 347 347 344 336 324 318 318 316 315 314 312 308 304 300 296 294
235 242 250 260 271 277 281 292 303 306 307 309 312 314 316 319 322 323 325 327 328 331 337 342 344 345 346 347 345 340 329 322 320 318 317 315 313 310 307 303 300 298